Terminal Aerodrome Forecast
Issued by NWS Chicago, IL

Home | Current Version | Previous Version | Graphics & Text | Print | Product List | Glossary On
Versions: 1 2 3 4 5 6 7 8 9 10 11 12 13 14 15 16 17 18 19 20 21 22 23 24 25 26 27 28 29 30 31 32 33
000
FTUS43 KLOT 201142
TAFRFD
TAF
KRFD 201142Z 2012/2112 29017G24KT P6SM BKN007 OVC012
     FM201500 30020G30KT P6SM OVC015
     FM201800 30018G28KT P6SM BKN020
     FM202100 28020G30KT P6SM BKN035
     FM210100 25009KT P6SM BKN080=

USA.gov is the U.S. government's official web portal to all federal, state and local government web resources and services.